TRANSIT 11 DEB, 11991

Orbit data source: Space-Track

TRANSIT 11 DEB, 11991 is space debris in LEO originally from a launch on Fri, 28 Jan 1966 UTC launched from the Air Force Western Test Range (AFWTR). Debris objects in space refer to the collection of defunct objects orbiting the Earth. Examples of debris include non-operational satellites, rocket bodies, and fragments generated from explosions, collisions, or faulty payload assembly.

Loading next visibility...
Identifier
11991, 1966-005H
Orbit
LEO
Country
Flag of USUS
Related business
Manufacturer
Unknown
Mission
Spacecraft
Bus & Motor
Unknown
Mass
Unknown
Launch date (UTC)
1966-01-28 (60 years ago)
Launch vehicle
Unknown
Launch site
Air Force Western Test Range (AFWTR)
Object type
Payload
Rocket body
Debris
Shape & HBR
Unknown
Radar Cross Section
Medium (>0.1 m² and <1 m²)

Expand to show TLE details & history
Last TLE update: 23 hours ago

TLE from 23 hours ago
0 TRANSIT 11 DEB
1 11991U 66005H   25242.05041534  .00001238  00000-0  97246-3 0  9990
2 11991  90.1726 337.3830 0177170 153.7127  19.0467 13.84329791981107
Epoch: 2025-08-30T01:12Z
TLE epoch observation values (Epoch: 2025-08-30T01:12:35.885Z)
Latitude
6.48605°
Longitude
160.76272°
Altitude
828.491 km
Speed
7.501 km/s
True Right ascension
10h 29m 36s
True Declination
6° 26' 53"
Sunlit
Object was in daylight at epoch
Visualization orbit readout
Latitude
Unknown
Longitude
Unknown
Altitude
Unknown
Speed
Unknown
Apparent Right ascension
Unknown
Apparent Declination
Unknown
Sunlit
N/A
Visualization observer readout
Local Sidereal Time
15:34:31
Azimuth
Unknown
Elevation
Unknown
Doppler factor
Unknown
Orbital elements
Apogee altitude
1,075.322 km
Perigee altitude
815.814 km
Semi-major axis
7,323.705 km
Eccentricity
0.01772
Inclination
90.1726°
RAAN
337.383°
Arg. of periapsis
153.7127°
True anomaly
19.72338°
Mean anomaly
19.0467°
Eccentric anomaly
19.38361°
Mean motion
3.46296 °/min
Orbital period
103.96 mins
BSTAR
0.00097246
Loading maneuver chart data...
Computing Atmospheric mass density...
Loading historical data...
Loading historical data...
Loading historical data...
Loading historical data...
Loading historical data...
Loading historical data...
Loading historical data...

Documentation

Showing up to 5 results
|